www.pogodaiklimat.ru

Погода и климат >> Архив погоды >> Нигер >> Гуре


ПОГОДА в Гуре

  • Прогноз погоды в Гуре
  • Монитор погоды в Гуре

АРХИВ ПОГОДЫ в Гуре

Время (UTC), дата Ветер
(напр.,м/с)
 
Видим.   Явления Облачность Т
(С)
Тd
(С)
f
(%)
Тe
(С)
Тes
(С)
Комфортность P
(гПа)
Po
(гПа)
Тmin
(С)
Tmax
(С)
R
(мм)
R24
(мм)
S
(см)
21 16.07 штиль 0 10 км 9/0
[Ac trans Cs]
+31.4 +22.6 60 +41 +41 опасность
перегрева
1011.7 961.6
00 17.07 ЮЗ 4 10 км 9/0
[Ac trans Cs]
+30.5 +22.3 62 +40 +40 очень
душно
1011.5 961.6
03 17.07 З 4 10 км 9/0
[Ac trans Cs]
+28.0 +23.0 74 +37 +37 очень
душно
1011.2 961.3
06 17.07 З 4 10 км 9/0
[Ac trans Cs]
+29.0 +23.3 71 +39 +40 очень
душно
1012.5 962.3 +28.5
09 17.07 З 10 10 км 9/0
[Cs]
+33.0 +23.2 56 +43 +44 опасность
перегрева
1011.1 962.8
12 17.07 З 10 10 км 9/3 1000 м
[Cu med, cong Ac trans Ci sp]
+37.0 +21.3 40 +44 +44 опасность
перегрева
1010.0 961.8
15 17.07 З 6 10 км 9/3 1000 м
[Cu med, cong Ac trans Ci sp]
+38.0 +20.8 37 +44 +46 опасность
перегрева
1007.7 969.7
18 17.07 штиль 0 10 км в посл. час гроза {дождь, морось} 9/3 1000 м
[Cb cap Ac cuf Ci sp]
+29.0 +20.2 59 +35 +35 очень
душно
1006.2 957.6 +39.0 2
21 17.07 штиль 0 10 км в посл. час гроза 10/3 1000 м
[Cb cap Ac As]
+25.5 +21.9 81 +33 +33 очень
душно
1010.1 961.4
03 18.07 З 12 10 км зарница 10/3 1000 м
[Cb cap Ac As]
+25.5 +20.3 73 +31 +31 очень
душно
1008.3 960.0
06 18.07 З 4 10 км 10/0
[Ac As]
+24.0 +21.1 84 +30 +31 очень
душно
1009.9 960.7 +23.5 15
09 18.07 З 2 10 км 10/0
[Ac As]
+29.0 +20.1 59 +35 +40 очень
душно
1010.3 959.5
12 18.07 ЮЗ 2 10 км 9/0
[Ac trans Ci sp]
+35.0 +23.3 51 +46 +60 опасность
перегрева
1009.0 958.8
15 18.07 З 4 10 км 9/0
[Ac trans Ci sp]
+34.5 +22.4 49 +43 +47 опасность
перегрева
1007.5 957.3
18 18.07 ЮЗ 2 10 км 9/3 900 м
[Cb calv Ci sp]
+31.0 +22.5 61 +41 +41 опасность
перегрева
1008.2 957.5 +36.5
21 18.07 З 4 10 км 9/0
[Ac As Ci sp]
+30.0 +21.3 60 +38 +38 очень
душно
1010.3 959.8
00 19.07 Ю 2 10 км зарница 10/1 900 м
[Cb cap Ac As]
+27.5 +21.7 71 +35 +35 очень
душно
1010.3 960.2
03 19.07 Ю 2 10 км зарница 10/1 900 м
[Cb cap Ac As]
+27.5 +22.5 74 +36 +36 очень
душно
1010.2 960.0
06 19.07 Ю 10 10 км зарница 10/3 900 м
[Cu Sc Ac As]
+24.5 +20.0 76 +30 +30 очень
душно
1014.0 963.1 +24.5
09 19.07 ЮВ 6 10 км 9/0
[Ac As Ci sp]
+28.0 +19.0 58 +33 +36 очень
душно
1014.1 963.4
12 19.07 З 6 10 км 9/0
[Ac As Ci sp]
+30.8 +19.2 50 +36 +39 очень
душно
1013.0 962.4
15 19.07 З 6 10 км 10/0
[Ac As]
+29.4 +20.9 60 +37 +38 очень
душно
1011.2 960.6
18 19.07 З 2 10 км {дождь} 9/0
[Ac cuf Ci sp]
+27.0 +21.4 71 +34 +34 очень
душно
1011.8 960.7 +31.0 0.2
21 19.07 З 2 10 км зарница 9/1 900 м
[Cb cap Ac cuf Ci sp]
+26.0 +20.0 70 +32 +32 очень
душно
1013.8 962.8
03 20.07 З 2 10 км 9/0
[Cs]
+24.5 +20.8 80 +31 +31 очень
душно
1011.8 960.9
06 20.07 штиль 0 10 км 9/0
[Ac trans Ci sp]
+25.2 +22.0 82 +32 +34 очень
душно
1014.2 963.0 +24.6 0.2
09 20.07 З 4 10 км 9/0
[Ac trans Ci sp]
+29.5 +22.2 65 +38 +45 очень
душно
1014.7 963.8
12 20.07 З 4 10 км 9/0
[Ac trans Ci sp]
+34.0 +19.2 42 +39 +48 очень
душно
1013.0 962.5
15 20.07 ЮЗ 4 10 км 9/0
[Ac trans Ci sp]
+35.7 +18.3 36 +40 +43 очень
душно
1010.7 960.3
18 20.07 З 2 10 км 9/1 900 м
[Cb calv Cs]
+31.0 +20.8 55 +38 +38 очень
душно
1010.7 960.0 +36.0
21 20.07 З 4 10 км 9/0
[Cs]
+29.2 +20.9 61 +36 +36 очень
душно
1012.2 961.7
00 21.07 З 4 10 км 9/0
[Ac trans Cs]
+28.0 +20.7 65 +35 +35 очень
душно
1011.7 961.4
03 21.07 З 2 10 км зарница 9/1 900 м
[Cb cap Cs]
+27.5 +20.1 64 +34 +34 очень
душно
1010.7 960.6
06 21.07 З 4 10 км 9/1 900 м
[Cb cap Ac As]
+27.0 +21.2 71 +34 +35 очень
душно
1012.1 961.5 +26.6
09 21.07 З 6 10 км 9/0
[Cs]
+31.0 +19.9 52 +37 +42 очень
душно
1012.9 962.4
12 21.07 З 2 10 км 10/0
[Ac As]
+34.0 +21.0 47 +41 +48 опасность
перегрева
1011.7 961.5
15 21.07 штиль 0 10 км гроза, ливневой дождь 10/4 900 м
[Cb cap Ac As]
+21.5 +20.5 94 +27 +29 душно 1013.0 961.6
18 21.07 штиль 0 10 км в посл. час гроза {дождь} 10/0
[Ac As]
+21.5 +21.5 100 +28 +28 очень
душно
1011.8 960.5 +34.5 31
21 21.07 штиль 0 10 км 10/0
[Ac As]
+23.5 +20.5 83 +29 +29 душно 1012.6 961.7
00 22.07 З 2 10 км 10/0
[Ac As]
+27.5 +21.6 70 +35 +35 очень
душно
1011.7 961.1
03 22.07 З 2 10 км 10/0
[Ac As]
+23.0 +21.6 92 +31 +31 очень
душно
1012.5 960.8
06 22.07 штиль 0 10 км 10/0
[Ac As]
+23.0 +22.3 96 +31 +32 очень
душно
1014.0 962.2 +22.6 31
09 22.07 З 2 10 км 9/0
[Ac As Ci sp]
+26.7 +22.0 75 +34 +40 очень
душно
1013.3 963.6
12 22.07 ЮЗ 2 10 км 9/3 1000 м
[Cu hum Ac trans Cs]
+30.6 +21.2 57 +38 +47 очень
душно
1014.2 963.1
15 22.07 ЮЗ 2 10 км 9/3 1200 м
[Cu med, cong Cs]
+32.0 +20.6 51 +39 +44 очень
душно
1011.3 960.5
18 22.07 штиль 0 10 км 9/0
[Ac cuf Cs]
+30.0 +21.3 60 +38 +38 очень
душно
1010.8 959.9 +32.5
21 22.07 штиль 0 10 км 6/0
[Ci sp]
+27.5 +22.5 74 +36 +36 очень
душно
1012.8 961.9
00 23.07 штиль 0 10 км 6/0
[Ac trans Ci sp]
+26.0 +23.2 85 +35 +35 очень
душно
1012.2 961.5
03 23.07 ЮЗ 2 10 км 9/0
[Cs]
+26.0 +21.8 78 +33 +33 очень
душно
1012.0 961.4
06 23.07 штиль 0 10 км 9/0
[Ac As Ci sp]
+25.0 +23.4 91 +34 +34 очень
душно
1013.2 962.4 +25.0
09 23.07 З 4 10 км 9/0
[Ac As Ci sp]
+28.0 +22.3 71 +37 +40 очень
душно
1014.5 963.6
12 23.07 З 2 10 км 9/3 1200 м
[Cu hum Ci sp]
+32.8 +21.6 52 +41 +53 опасность
перегрева
1013.0 962.4
15 23.07 ЮЗ 2 10 км 9/4 1200 м
[Cu hum Ci sp]
+33.5 +20.4 46 +40 +44 очень
душно
1011.0 960.6
18 23.07 штиль 0 10 км 9/1 900 м
[Cb calv Cs]
+31.5 +20.5 52 +38 +38 очень
душно
1010.7 960.1 +34.5

 

Местоположение метеостанции Гуре (Нигер): широта 13.98 долгота 10.30 высота над уровнем моря 460 м.

В архиве по умолчанию представлена погода в Гуре за последнюю неделю. Архивные данные за месяц целиком и за предыдущие месяцы, начиная с января 2011 года, Вы можете получить, выбрав интересующий диапазон дат из раскрывающегося списка и нажав кнопку "Ввод!".


*Определитесь, кто Вы:
робот инопланетянин человек

Внимание! Время в таблицах - всемирное. Для получения местного времени необходимо прибавить поправку, которая равна 1 ч.

Смотрите также архив погоды в соседних городах и на ближайших метеорологических станциях:

Погода в Зиндере (Нигер) (144 км)
Погода в Магарьа (Нигер) (185 км)
Погода в Майне-Сороа (Нигер) (200 км)
Погода в Диффе (Нигер) (275 км)
Погода в Кано (Нигерия) (288 км)
Погода в Кацине (Нигерия) (303 км)
Погода в Нгигми (Нигер) (306 км)
Погода в Маради (Нигер) (353 км)
Погода в Агадесе (Нигер) (416 км)
Погода в Гомбе (Нигерия) (422 км)

Пояснения к столбцам:

Ветер - указаны скорость ветра в м/с - средняя за 10 мин, порывы в срок и между сроками (в фигурных скобках) и направление, откуда дует ветер: С - северный, СВ - северо-восточный, В - восточный, ЮВ - юго-восточный, Ю - южный, ЮЗ - юго-западный, З - западный, СЗ - северо-западный.
Видимость - горизонтальная дальность видимости в метрах или километрах. При видимости от 1 до 10 км при отсутствии осадков обычно наблюдается дымка, при ухудшении видимости до 1 км и менее - туман. В сухую погоду видимость может ухудшаться дымом, пылью или мглою.
Явления - указаны атмосферные явления, наблюдавшиеся в срок или в последний час перед сроком; фигурными скобками обозначены явления, наблюдавшиеся между сроками (за 1-3 часа до срока); квадратными скобками обозначены град или гололедные отложения с указанием их диаметра в мм.
Облачность - указаны через наклонную черту общая и нижняя облачность в баллах и высота нижней границы облаков в метрах; квадратными скобками обозначены формы облаков: Ci - перистые, Cs - перисто-слоистые, Cc - перисто-кучевые, Ac - высококучевые, As - высокослоистые, Sc - слоисто-кучевые, Ns - слоисто-дождевые, Cu - кучевые, Cb - кучево-дождевые. Подробнее классификацию облаков см. в Атласе облаков (PDF).
T - Температура воздуха - температура, измеренная на высоте 2 м над землей.
Td - Температура точки росы - температура, при понижении до которой содержащийся в воздухе водяной пар достигнет насыщения.
f - Относительная влажность воздуха - влажноcть воздуха, измеренная на высоте 2 м над землей.
Te - Эффективная температура - температура, которую ощущает одетый по сезону человек в тени. Характеристика душности погоды. При расчете учитывается влияние влажности воздуха и скорости ветра на теплоощущения человека.
Tes - Эффективная температура на солнце - температура, которую ощущает человек, с поправкой на солнечный нагрев. Характеристика знойности погоды. Зависит от высоты солнца над горизонтом, облачности и скорости ветра. Ночью, в пасмурную погоду, а также при ветре 12 м/с и более поправка равна нулю.
P - Атмосферное давление - приведенное к уровню моря атмосферное давление.
Po - Атмосферное давление - измеренное на уровне метеостанции атмосферное давление.
Tmin - Минимальная температура - минимум температуры воздуха на высоте 2 м над землей.
Tmax - Максимальная температура - максимум температуры воздуха на высоте 2 м над землей.
R - Количество осадков - Количество выпавших осадков за период времени, мм. При наведении курсора мыши на число - период времени, за который выпало указанное количество осадков.
R24 - Количество осадков - Количество выпавших осадков за 24 часа, мм.
S - Снежный покров - Высота снежного покрова, см. При наведении курсора мыши на число - состояние снежного покрова и степень покрытия местности в баллах.